Regional Weather Roundup
Issued by NWS

Home | Current Version | Previous Version | Text Only | Print | Product List | Glossary On
Versions: 1 2 3 4 5 6 7 8 9 10 11 12 13 14 15 16 17 18 19 20 21 22 23 24 25 26 27 28 29 30 31 32 33 34 35 36 37 38 39 40 41 42 43 44 45 46 47 48 49 50
506
ASUS43 KDMX 260808
RWRIA

WEATHER ROUNDUP FOR IOWA
NATIONAL WEATHER SERVICE DES MOINES IA
300 AM CDT THU MAY 26 2016

NOTE: "FAIR" INDICATES FEW OR NO CLOUDS BELOW 12,000 FEET WITH NO
SIGNIFICANT WEATHER AND/OR OBSTRUCTIONS TO VISIBILITY.

* - THESE STATIONS ARE NOT NWS STATIONS...THUS NOT UNDER NWS
QUALITY CONTROL.  THEY ALSO DO NOT REPORT WEATHER SUCH
AS PRECIPITATION OR FOG.

IAZ001>003-012>014-020>022-031>034-043>046-260900-
   NORTHWEST IOWA

CITY           SKY/WX    TMP DP  RH WIND       PRES   REMARKS
CARROLL *      HVY RAIN  63  59  88 VRB8G25   29.97R
CHEROKEE *     LGT RAIN  59  59 100 SW9       29.83S
DENISON *      MOCLDY    61  55  82 E10       29.86R
LE MARS *      MOCLDY    61  59  94 S5        29.80F
ORANGE CITY *  PTCLDY    61  57  88 SW12G20   29.80F
SHELDON *      CLEAR     63  57  82 W17G26    29.79F
SIOUX CITY     CLOUDY    61  58  90 NW10G18   29.80F
SPENCER        LGT RAIN  61  54  77 N10       29.78F
STORM LAKE *   LGT RAIN  61  55  82 S15G38    29.89R
$$

IAZ055>058-069>071-079>083-090>094-260900-
   SOUTHWEST IOWA

CITY           SKY/WX    TMP DP  RH WIND       PRES   REMARKS
ATLANTIC *     LGT RAIN  63  61  94 N8        29.86R
AUDUBON *      LGT RAIN  64  61  88 SW7G18    29.96R
CLARINDA *       N/A     66  61  82 MISG      29.88R
COUNCIL BLFS * CLEAR     63  57  82 NE10      29.89R
CRESTON *      PTCLDY    66  63  88 NW21      29.90R
HARLAN  *      CLOUDY    64  59  82 N9        29.94R
LAMONI         CLOUDY    69  66  90 S9        29.78F
RED OAK *      CLOUDY    63  61  94 CALM      29.86F
SHENANDOAH *   PTCLDY    68  64  88 CALM      29.86R
$$

IAZ047>049-059>061-072>074-084-260900-
   CENTRAL IOWA

CITY           SKY/WX    TMP DP  RH WIND       PRES   REMARKS
AMES           CLOUDY    68  65  90 S7        29.81S
ANKENY *       HVY RAIN  66  64  94 S9G23     29.83R
BOONE *        MOCLDY    70  66  88 SW8       29.81R
CHARITON *     PTCLDY    66  61  82 SE7       29.80S
DES MOINES     CLOUDY    66  61  82 S8        29.82R THUNDER
GRINNELL*      CLOUDY    70  64  83 SE6       29.83S
KNOXVILLE *    CLOUDY    68  63  83 S8        29.78F
MARSHALLTOWN   CLOUDY    68  63  84 SE6       29.80F
NEWTON *       CLOUDY    70  68  94 SE8       29.81S
PELLA *        LGT RAIN  68  64  88 S7        29.81F
PERRY *        RAIN      64  63  94 SW20      29.88R
$$

IAZ004>006-015-016-023>025-035-036-260900-
   NORTH CENTRAL IOWA

CITY           SKY/WX    TMP DP  RH WIND       PRES   REMARKS
ALGONA *       DRIZZLE   63  55  77 N9        29.85R
CLARION *      CLOUDY    59  57  94 NW21G29   29.86R
ESTHERVILLE    LGT RAIN  61  54  77 SW20G26   29.81F
FORT DODGE *   CLOUDY    59  52  77 NW12G21   29.84R THUNDER
MASON CITY     TSTM      58  55  90 NW25G36   29.87R VSB 1
FOREST CITY *  LGT RAIN  57  55  94 NW18G29   29.83F
WEBSTER CITY * MOCLDY    63  57  82 NW24G32   29.84R
IOWA FALLS *     N/A     68  63  83 S6        29.81F
$$

IAZ007>011-017>019-026>030-037>042-050>054-066-260900-
   NORTHEAST IOWA

CITY           SKY/WX    TMP DP  RH WIND       PRES   REMARKS
CHARLES CITY * MOCLDY    68  63  83 S10       29.80F
CLINTON *      MOCLDY    69  64  84 S8        29.86F
DECORAH *      CLEAR     64  61  88 S5        29.80F
DUBUQUE        PTCLDY    65  58  78 S5        29.85F
MONTICELLO *   MOCLDY    70  61  73 SE7       29.84F
OELWEIN *      PTCLDY    68  61  77 S10       29.81F
WATERLOO       CLOUDY    69  60  73 S7        29.79F
$$

IAZ064-065-067-068-078-260900-
   EAST CENTRAL IOWA

CITY           SKY/WX    TMP DP  RH WIND       PRES   REMARKS
DAVENPORT      PTCLDY    72  63  73 S10       29.86F
IOWA CITY      CLOUDY    73  63  70 S8        29.85F
MT. PLEASANT * CLOUDY    73  66  78 S9        29.85F
MUSCATINE *    PTCLDY    70  63  78 S6        29.86F
QUAD CITIES    CLOUDY    74  63  68 SW10      29.85F
$$

IAZ062-063-075>077-085>089-095>099-260900-
   SOUTHEAST IOWA

CITY           SKY/WX    TMP DP  RH WIND       PRES   REMARKS
BURLINGTON     CLOUDY    70  65  84 S9        29.88F
FAIRFIELD *      N/A    N/A N/A N/A MISG        N/A
FORT MADISON * MOCLDY    72  64  78 S8        29.87F
KEOKUK *       CLOUDY    73  64  73 S9        29.86F
OSKALOOSA *    LGT RAIN  64  61  88 W13G26    29.80F
OTTUMWA        TSTM      66  61  84 S10       29.82F
WASHINGTON *   CLEAR     70  68  94 S8        29.85F
$$

ABBREVIATIONS USED IN REMARKS
   TC - TEMPERATURES IN CELSIUS
  WCI - WIND CHILL INDEX
   HX - HEAT INDEX
  VSB - VISIBILITY
$$





USA.gov is the U.S. government's official web portal to all federal, state and local government web resources and services.